Weather History for LIRA - December, 2011

Change the Weather History Date:

Tuesday, December 27, 2011

  Actual Average Record
Temperature  
Mean Temperature 44 °F -  
Max Temperature 55 °F 53 °F 60 °F (1999)
Min Temperature 33 °F 37 °F 26 °F (1996)
Degree Days  
Heating Degree Days 21    
Moisture  
Dew Point 36 °F    
Average Humidity 76    
Maximum Humidity 100    
Minimum Humidity 51    
Precipitation  
Precipitation 0.00 in 0.14 in - ()
Sea Level Pressure  
Sea Level Pressure 30.49 in    
Wind  
Wind Speed 2 mph ()    
Max Wind Speed 4 mph    
Max Gust Speed -    
Visibility 6.2 miles    
Events      
Averages and records for this station are not official NWS values.
T = Trace of Precipitation, MM = Missing Value Source: Averaged Metar Reports

Daily Weather History Graph

Daily Weather History Graph

Search for Another Location

Airport or City:

Trip Planner

Search our weather history database for the weather conditions in past years. The results will help you decide how hot, cold, wet, or windy it might be!

Date:

Astronomy

Dec. 27, 2011 Rise Set
Actual Time 7:35 AM CET 4:45 PM CET
Civil Twilight 7:04 AM CET 5:16 PM CET
Nautical Twilight 6:29 AM CET 5:51 PM CET
Astronomical Twilight 5:55 AM CET 6:25 PM CET
Moon 9:19 AM CET (12/27) 8:03 PM CET (12/27)
Length of Visible Light 10h 12m
Length of Day
9h 09m
Waxing Crescent, 9% of the Moon is Illuminated
Dec 27
Waxing Crescent
Jan 1
First Quarter
Jan 9
Full
Jan 16
Last Quarter
Jan 23
New

Hourly Weather History & Observations

Time (CET) Temp. Windchill Dew Point Humidity Pressure Visibility Wind Dir Wind Speed Gust Speed Precip Events Conditions
12:15 AM 42.8 °F - 33.8 °F 70% 30.48 in 6.2 mi North 2.3 mph - N/A   Partly Cloudy
12:45 AM 41.0 °F - 33.8 °F 76% 30.48 in - North 2.3 mph - N/A   Clear
1:15 AM 39.2 °F 37.0 °F 33.8 °F 81% 30.48 in - East 3.5 mph - N/A   Clear
1:45 AM 39.2 °F 37.0 °F 32.0 °F 75% 30.48 in - NE 3.5 mph - N/A   Clear
2:15 AM 39.2 °F - 33.8 °F 81% 30.48 in - East 1.2 mph - N/A   Clear
2:45 AM 39.2 °F - 33.8 °F 81% 30.48 in - East 2.3 mph - N/A   Clear
3:15 AM 39.2 °F - 33.8 °F 81% 30.48 in - ENE 2.3 mph - N/A   Clear
3:45 AM 37.4 °F - 33.8 °F 87% 30.48 in - East 1.2 mph - N/A   Clear
4:15 AM 37.4 °F - 32.0 °F 81% 30.48 in - ENE 2.3 mph - N/A   Clear
4:45 AM 37.4 °F - 32.0 °F 81% 30.48 in - East 2.3 mph - N/A   Clear
5:15 AM 37.4 °F - 32.0 °F 81% 30.48 in - Calm Calm - N/A   Clear
5:45 AM 37.4 °F - 32.0 °F 81% 30.48 in - ESE 2.3 mph - N/A   Clear
6:15 AM 35.6 °F - 32.0 °F 87% 30.51 in - NNE 2.3 mph - N/A   Clear
6:45 AM 33.8 °F 30.8 °F 33.8 °F 100% 30.51 in - NE 3.5 mph - N/A   Clear
7:15 AM 33.8 °F - 33.8 °F 100% 30.51 in - NNE 1.2 mph - N/A   Clear
7:45 AM 33.8 °F - 33.8 °F 100% 30.51 in - NE 2.3 mph - N/A   Clear
8:15 AM 33.8 °F 30.8 °F 32.0 °F 93% 30.51 in - NE 3.5 mph - N/A   Clear
8:45 AM 37.4 °F - 35.6 °F 93% 30.51 in - ENE 2.3 mph - N/A   Clear
9:15 AM 41.0 °F 39.0 °F 35.6 °F 81% 30.51 in - NE 3.5 mph - N/A   Clear
9:45 AM 41.0 °F 39.0 °F 37.4 °F 87% 30.54 in 6.2 mi NE 3.5 mph - N/A   Partly Cloudy
10:15 AM 44.6 °F - 39.2 °F 81% 30.54 in 6.2 mi North 2.3 mph - N/A   Partly Cloudy
10:45 AM 46.4 °F - 39.2 °F 76% 30.54 in 6.2 mi North 2.3 mph - N/A   Partly Cloudy
11:15 AM 48.2 °F - 39.2 °F 71% 30.54 in - Calm Calm - N/A   Clear
11:45 AM 50.0 °F - 37.4 °F 62% 30.54 in - NNW 2.3 mph - N/A   Clear
12:15 PM 51.8 °F - 39.2 °F 62% 30.54 in - NNW 2.3 mph - N/A   Clear
12:45 PM 51.8 °F - 39.2 °F 62% 30.51 in - NNE 3.5 mph - N/A   Clear
1:15 PM 53.6 °F - 39.2 °F 58% 30.51 in - North 2.3 mph - N/A   Clear
1:45 PM 53.6 °F - 37.4 °F 54% 30.51 in - North 3.5 mph - N/A   Clear
2:15 PM 55.4 °F - 37.4 °F 51% 30.48 in - WSW 2.3 mph - N/A   Clear
2:45 PM 53.6 °F - 35.6 °F 51% 30.48 in - NNE 3.5 mph - N/A   Clear
3:15 PM 53.6 °F - 35.6 °F 51% 30.48 in - NNE 3.5 mph - N/A   Clear
3:45 PM 51.8 °F - 35.6 °F 54% 30.48 in - NNE 2.3 mph - N/A   Clear
4:15 PM 51.8 °F - 37.4 °F 58% 30.48 in - North 2.3 mph - N/A   Clear
4:45 PM 51.8 °F - 37.4 °F 58% 30.48 in - North 1.2 mph - N/A   Clear
5:15 PM 48.2 °F - 37.4 °F 66% 30.48 in - Calm Calm - N/A   Clear
5:45 PM 46.4 °F - 37.4 °F 71% 30.48 in - ESE 1.2 mph - N/A   Clear
6:15 PM 46.4 °F - 39.2 °F 76% 30.48 in - South 2.3 mph - N/A   Clear
6:45 PM 46.4 °F - 39.2 °F 76% 30.48 in - East 1.2 mph - N/A   Clear
7:15 PM 42.8 °F - 37.4 °F 81% 30.48 in - SE 1.2 mph - N/A   Clear
7:45 PM 42.8 °F - 35.6 °F 76% 30.48 in - ESE 2.3 mph - N/A   Clear
8:15 PM 42.8 °F - 35.6 °F 76% 30.48 in - SE 1.2 mph - N/A   Clear
9:15 PM 41.0 °F - 35.6 °F 81% 30.48 in - SE 2.3 mph - N/A   Clear
9:45 PM 39.2 °F 37.0 °F 35.6 °F 87% 30.48 in - SSE 3.5 mph - N/A   Clear
10:15 PM 41.0 °F - 35.6 °F 81% 30.48 in - SE 1.2 mph - N/A   Clear
10:45 PM 41.0 °F - 35.6 °F 81% 30.48 in - SE 2.3 mph - N/A   Clear
11:15 PM 41.0 °F - 35.6 °F 81% 30.48 in - SSE 2.3 mph - N/A   Clear
11:45 PM 39.2 °F - 35.6 °F 87% 30.48 in - NE 2.3 mph - N/A   Clear